Dewpoint
55 55 52 46 29 35 21 23 42 39 38 36 36 33 32 33 33 35 61 66 69 68 71 70 72 72 72 71 71 71 72 71 71 70 69 70 70 68 67 66 67 68 69 67 65 66 64 64 66
54 53 48 42 26 6 7 36 35 40 36 36 34 34 44 45 58 61 62 65 68 69 71 70 72 71 72 72 71 71 71 71 70 68 68 68 69 67 67 67 67 69 69 68 66 64 66 64 63
52 49 42 37 31 10 11 34 37 36 34 30 28 31 44 54 58 62 64 65 69 69 71 70 71 71 71 71 72 71 71 71 70 70 68 68 68 67 67 69 69 69 68 67 66 66 66 63 62
48 42 40 32 22 31 29 35 37 32 30 29 28 26 43 47 47 58 63 65 68 70 70 70 71 71 71 71 72 71 71 71 70 70 69 69 69 68 68 69 69 69 67 66 65 65 65 66 65
44 35 29 24 26 34 38 38 36 28 27 26 26 24 26 49 54 60 62 63 65 69 70 70 70 70 70 71 71 71 71 71 70 69 69 69 69 68 68 69 69 69 68 65 64 64 65 66 65
37 31 16 9 21 32 33 35 31 27 26 26 25 25 27 48 48 57 62 63 64 65 69 69 69 69 70 70 70 70 70 70 70 70 70 69 69 68 68 68 69 69 68 65 64 65 65 66 65
30 17 10 18 22 28 30 31 27 27 27 25 26 25 27 37 38 54 60 62 63 64 65 69 69 69 70 70 70 69 69 67 67 69 70 70 69 68 67 67 67 68 68 66 64 66 66 65 66
39 29 28 28 25 20 31 30 29 27 26 28 27 25 28 34 35 43 52 59 61 62 63 64 67 68 68 68 67 66 65 64 64 66 69 69 69 68 67 66 66 68 67 67 65 66 66 65 66
37 19 15 23 30 27 31 30 31 32 30 29 29 29 31 30 35 36 41 50 57 61 61 62 64 64 65 65 63 62 60 60 64 66 68 68 68 68 67 66 65 65 66 66 66 66 66 66 66
31 15 17 32 33 31 31 32 32 30 28 27 28 28 30 31 32 33 35 38 47 53 60 62 62 63 63 63 63 61 58 56 61 67 68 68 68 67 67 66 66 66 64 63 66 67 66 65 63
32 21 31 31 33 31 31 31 32 29 27 28 26 28 29 30 30 32 34 36 41 48 59 61 62 62 62 62 62 61 58 58 58 60 66 66 67 67 67 66 66 65 63 62 61 65 65 62 62
28 33 32 33 31 30 28 29 28 28 26 28 29 30 29 29 30 32 30 31 34 40 53 60 62 62 62 62 61 61 60 60 60 59 59 64 66 66 66 65 65 64 63 63 62 63 64 65 63
27 29 30 31 29 29 29 27 27 26 27 28 28 29 29 29 29 29 31 33 36 39 49 59 62 62 61 61 61 61 61 60 60 60 60 62 64 64 65 65 64 63 64 64 65 63 63 63 63
29 29 29 27 27 27 25 25 26 23 24 26 26 26 26 28 28 30 31 32 34 35 44 58 60 62 61 61 61 61 60 59 59 58 58 60 62 64 65 65 64 64 64 64 65 65 64 62 60
29 21 23 23 25 26 25 18 22 24 26 26 27 28 29 29 30 30 31 32 34 35 39 48 57 60 61 61 61 61 60 60 58 57 57 58 60 62 64 65 64 64 65 64 64 63 62 61 58
24 22 9 18 26 27 26 20 18 23 30 30 29 29 29 31 33 34 35 34 34 36 37 42 52 58 59 60 61 60 60 59 58 57 58 58 58 60 62 63 64 65 64 64 63 62 61 61 58
20 9 19 21 26 28 28 25 28 30 29 28 28 29 32 33 35 37 38 37 34 36 37 40 49 54 57 58 58 58 58 58 59 59 59 59 59 59 60 62 62 63 64 64 63 62 61 60 58
15 18 22 22 24 27 27 27 28 30 31 31 31 32 34 37 39 40 39 37 37 38 38 41 49 54 57 58 58 58 58 58 59 59 59 59 59 60 60 61 61 62 63 62 62 61 61 60 59
23 24 24 25 26 27 28 28 30 32 34 35 37 40 42 44 46 45 46 44 41 40 46 52 55 56 57 57 56 56 56 57 58 59 60 59 60 60 60 61 61 61 61 60 61 61 58 58 58
27 25 24 26 28 29 29 29 31 33 37 40 40 41 43 45 47 48 49 50 51 51 54 56 56 57 57 58 58 57 57 58 58 59 60 60 60 60 60 61 61 61 61 60 59 59 58 56 57
27 26 25 26 29 32 30 28 25 33 36 36 41 41 44 46 47 48 49 50 51 51 52 53 55 56 56 58 58 58 58 58 58 58 59 60 60 61 61 62 61 61 61 59 58 58 56 55 56
24 27 28 29 30 26 32 23 24 29 33 33 38 39 41 45 46 46 47 47 48 50 52 53 53 53 53 54 56 56 55 55 55 58 58 58 59 60 61 61 62 62 61 59 58 58 57 55 54
27 29 30 31 31 30 29 26 23 30 30 33 38 40 40 43 44 44 45 46 46 47 48 49 49 50 50 51 52 56 55 57 57 58 59 59 59 60 61 61 61 61 60 60 59 58 57 57 55
31 32 33 33 31 24 24 25 22 28 32 34 38 40 41 41 42 43 44 44 44 45 46 46 45 45 47 48 49 50 53 53 53 53 55 55 56 60 60 61 60 60 60 59 59 58 58 57 57
34 31 23 20 22 19 27 26 24 32 33 37 39 39 40 41 41 41 41 42 42 42 43 44 43 42 43 43 45 46 48 48 49 49 50 50 51 52 54 59 58 58 59 59 59 59 57 57 56
34 33 24 18 19 23 30 24 29 35 38 39 38 38 39 40 40 40 40 41 41 41 42 42 42 41 41 42 41 42 43 45 45 45 46 47 48 48 50 53 57 58 58 58 58 58 58 58 57
34 30 35 29 28 26 26 31 36 37 36 35 34 37 37 39 39 39 39 40 40 40 41 41 41 41 40 40 41 40 41 41 41 42 43 44 45 46 47 48 50 52 53 55 57 58 58 58 58
35 36 29 30 21 20 24 27 28 32 32 32 32 33 36 37 39 39 39 39 38 39 38 39 39 38 36 36 37 37 38 38 39 40 40 40 41 42 43 44 45 47 49 50 52 53 54 56 58
34 31 31 32 29 23 21 25 36 32 33 33 34 36 37 37 39 39 38 36 36 36 35 35 36 36 34 33 33 33 34 34 34 34 35 37 38 39 40 41 41 42 43 45 47 48 49 50 52
31 28 27 24 21 24 23 24 36 37 37 35 36 37 38 39 38 37 34 33 33 32 33 33 35 34 33 31 30 31 31 31 31 32 32 33 33 34 34 35 37 39 41 42 43 43 43 45 46
Wind_Speed
4 4 2 5 3 2 3 4 2 3 2 2 5 5 4 4 4 1 5 6 4 6 10 14 14 16 19 17 16 15 15 13 14 13 14 13 13 13 14 15 14 14 15 16 13 13 13 13 14
3 1 5 4 5 5 5 3 7 4 4 9 2 2 1 1 3 4 5 18 9 6 11 12 12 14 17 18 16 17 16 15 14 13 13 13 13 13 15 15 16 14 15 16 14 15 13 14 13
1 4 4 5 4 9 3 3 3 1 3 5 2 1 2 6 10 7 13 18 7 9 11 11 11 12 14 16 16 15 13 13 14 13 13 14 16 13 13 14 15 13 14 16 15 14 15 16 15
1 4 5 2 9 3 2 7 2 3 2 5 2 1 3 11 7 11 18 17 8 4 9 12 13 12 12 12 14 15 14 13 12 12 13 13 14 15 14 13 13 15 17 17 16 15 16 15 15
5 4 4 2 6 3 3 4 2 0 1 2 2 2 4 3 10 12 14 14 12 6 7 10 13 14 12 12 13 13 14 13 12 11 11 12 14 16 16 12 13 17 16 17 17 18 17 14 12
4 3 3 6 6 3 4 4 2 3 1 3 1 4 3 2 19 17 11 12 11 11 9 12 11 11 11 10 9 8 8 10 11 11 12 13 14 15 16 16 13 19 18 17 17 17 17 15 12
5 3 3 3 3 2 1 6 2 0 1 1 4 4 3 3 15 14 12 8 9 10 9 7 11 10 9 8 8 8 7 5 3 6 12 12 13 12 15 16 16 18 18 18 17 16 16 15 13
5 4 4 4 3 3 4 4 1 3 2 8 1 4 4 6 17 15 12 9 7 8 9 9 1 11 13 13 15 13 10 8 4 8 12 11 10 12 14 16 17 17 19 19 19 17 16 14 12
3 3 4 3 6 1 2 6 2 2 5 4 4 4 9 15 14 19 15 12 11 6 4 5 4 4 10 14 15 15 12 9 6 7 12 12 9 10 12 14 16 16 18 18 17 17 15 14 11
3 4 6 2 2 2 7 3 6 5 7 9 12 13 10 18 19 20 19 17 13 12 7 2 4 5 5 5 9 10 9 7 5 7 9 9 9 8 10 15 18 17 17 16 16 18 15 13 12
3 4 5 2 1 4 6 12 4 7 9 9 8 10 15 16 23 21 18 15 16 13 10 7 7 8 10 8 7 8 9 7 3 4 8 11 11 10 10 10 13 15 18 15 18 15 14 14 12
3 2 3 1 2 4 6 5 10 14 14 16 20 14 9 20 21 18 23 22 20 17 14 11 10 11 12 9 10 11 8 7 5 5 3 7 7 7 12 15 16 16 14 15 18 15 14 13 12
1 1 3 3 13 10 10 16 15 17 21 20 21 18 16 16 21 24 21 20 19 20 15 14 12 13 13 14 11 11 10 9 6 6 7 6 8 9 8 12 15 20 17 15 15 17 17 15 12
1 3 9 8 9 9 8 8 2 9 9 13 16 18 17 16 19 20 20 21 17 18 17 10 14 16 14 15 14 11 8 7 7 8 9 9 10 9 10 9 12 14 19 20 20 17 17 13 12
1 6 9 4 3 5 7 8 10 14 12 12 13 15 18 19 18 20 21 24 23 19 18 15 14 15 17 18 16 13 11 10 11 10 9 10 11 12 12 13 12 14 14 18 15 14 12 12 10
4 4 6 2 7 3 6 10 7 13 10 16 20 23 20 22 20 20 22 24 23 19 18 17 13 13 18 18 14 13 11 10 10 10 9 11 13 13 15 15 15 15 13 15 13 14 14 13 11
8 2 3 8 4 2 2 16 15 15 21 25 22 20 22 22 23 22 21 22 25 17 18 17 13 17 16 14 12 11 11 11 11 10 11 12 13 15 16 16 17 16 14 16 17 15 18 18 13
1 3 4 8 3 5 19 26 25 20 17 21 20 19 19 20 24 24 20 21 22 17 17 16 12 13 13 10 9 9 9 10 10 12 13 14 14 16 17 17 19 20 17 17 19 19 15 15 15
5 1 8 8 12 9 13 22 26 23 12 10 10 10 13 15 19 16 14 16 14 15 15 13 10 10 10 6 6 9 12 10 11 12 17 18 17 18 18 18 20 21 23 24 21 23 23 18 12
1 5 8 12 6 7 14 27 23 8 3 5 9 12 13 14 16 16 13 9 4 7 8 8 8 8 8 6 4 6 5 8 12 12 15 17 19 19 19 21 22 24 23 26 26 24 20 20 17
4 5 4 8 11 11 11 10 4 3 2 8 9 9 11 12 14 16 17 16 18 8 1 7 6 7 4 2 6 7 7 7 8 12 13 17 20 20 22 23 21 23 25 25 28 27 28 23 14
4 6 9 11 9 6 4 10 5 3 5 7 9 10 13 14 12 13 14 16 14 12 13 12 12 11 10 8 8 11 11 12 12 14 16 17 19 21 21 22 18 14 16 24 26 24 26 22 21
6 6 8 12 15 12 6 7 5 4 5 13 8 10 10 10 12 12 13 10 12 16 16 15 16 17 15 13 11 11 13 6 4 9 10 12 15 20 20 20 19 15 10 9 8 11 13 12 11
8 8 12 14 9 7 4 5 5 3 7 11 6 7 8 10 13 13 14 14 15 17 18 19 18 17 16 14 15 13 9 8 9 12 11 11 13 11 20 18 16 14 13 14 15 16 17 14 12
6 6 4 2 2 6 6 5 10 4 8 10 4 6 9 10 12 14 15 16 17 18 19 16 18 17 14 16 18 15 14 15 12 13 12 15 15 17 21 9 10 9 9 10 9 16 15 12 16
6 3 2 4 4 7 6 5 4 3 5 6 7 6 7 9 12 14 14 13 15 16 16 15 14 16 16 18 17 20 17 13 11 11 13 13 13 15 19 19 11 5 5 7 7 8 11 13 14
3 3 2 4 4 5 3 4 2 2 3 8 9 8 9 10 13 13 12 11 12 14 14 10 8 14 15 17 12 13 13 13 13 16 12 12 14 14 15 17 18 16 15 13 5 4 9 12 13
2 2 1 2 4 6 4 4 7 13 7 5 5 6 9 10 10 9 10 11 11 12 11 12 14 12 12 11 10 11 13 15 15 15 17 18 17 17 17 18 15 15 15 14 14 13 12 6 14
3 1 1 2 3 3 7 2 7 8 5 5 3 7 8 10 8 9 10 11 11 10 11 11 11 12 13 13 14 15 16 16 14 16 17 16 16 17 17 16 15 16 16 15 13 10 11 12 13
2 3 2 3 2 4 2 5 5 3 4 5 6 9 6 3 3 5 6 6 7 8 9 11 11 11 11 11 13 14 14 14 15 16 15 14 15 15 15 15 15 15 14 13 14 14 14 13 13
Wind_Direction
354 354 42 44 118 70 236 229 187 173 148 171 301 249 264 282 253 284 344 355 350 176 184 176 174 173 164 157 152 152 152 150 151 160 163 160 156 162 162 165 170 169 155 138 144 141 143 130 133
344 340 48 94 134 178 226 165 189 136 324 309 286 313 220 274 349 345 17 342 299 200 184 186 172 164 163 159 161 159 162 161 163 173 171 175 163 173 172 171 173 174 157 141 145 144 146 130 138
97 47 86 113 150 211 191 170 133 319 352 18 17 344 2 348 354 347 339 333 317 208 183 181 158 164 163 164 166 166 169 167 170 179 179 180 164 182 181 179 174 166 146 136 147 150 143 148 144
54 48 53 152 216 252 153 147 99 12 23 30 348 122 79 89 344 317 328 343 314 213 194 180 167 165 162 164 170 171 175 179 183 185 190 180 176 179 189 183 175 159 146 148 156 156 153 155 152
38 69 116 165 246 266 251 234 214 73 164 356 355 274 317 70 2 6 351 350 351 293 210 196 181 168 173 177 176 178 180 187 186 194 200 192 197 187 190 186 169 159 153 156 161 161 162 166 167
71 85 132 224 235 262 278 255 251 201 143 329 335 315 260 63 10 356 1 355 354 331 270 204 201 174 174 172 176 183 182 192 199 198 203 206 206 204 200 180 183 171 162 163 168 170 172 172 173
108 105 173 179 276 300 333 344 51 133 14 208 318 292 272 342 355 347 344 355 5 3 338 246 194 193 192 180 150 129 120 129 195 221 215 213 219 216 208 193 186 182 172 167 171 179 179 180 176
101 92 147 206 209 257 6 13 13 42 259 318 288 259 278 333 338 342 348 344 1 17 3 356 322 161 147 148 144 150 151 161 181 215 210 214 219 224 218 201 196 184 183 173 169 180 184 189 183
107 118 203 208 172 249 11 4 329 320 282 315 289 275 297 321 334 346 352 349 350 356 8 350 331 221 171 163 161 158 158 152 170 204 203 203 213 218 219 207 202 204 195 175 174 182 188 191 189
108 161 196 184 192 299 311 313 321 309 285 278 285 290 305 325 334 331 328 330 335 329 302 245 268 234 213 220 177 168 169 162 159 179 181 193 203 208 214 205 204 202 203 198 193 186 187 191 202
127 171 176 156 106 5 291 299 253 270 277 254 276 272 302 307 312 310 310 308 308 307 286 244 215 225 218 212 200 195 179 174 184 175 195 196 191 191 195 207 207 202 205 200 220 211 199 206 206
123 144 144 164 323 305 275 284 276 254 263 270 268 277 284 293 289 293 300 299 300 300 286 247 223 223 224 225 216 206 200 209 211 230 267 254 214 211 199 189 197 203 199 199 208 219 219 206 208
124 250 312 267 284 262 254 260 264 274 263 264 275 273 264 268 276 282 281 286 286 286 285 258 219 227 229 223 229 224 212 223 231 244 246 246 250 236 216 219 203 192 187 200 209 213 219 214 215
218 289 287 278 281 278 278 281 276 249 263 270 280 282 280 268 266 274 281 281 281 276 278 264 232 227 225 232 234 236 239 253 268 267 258 245 241 238 231 227 224 222 203 196 192 198 203 201 205
353 330 323 3 357 318 333 291 231 259 290 283 289 292 288 277 264 261 264 272 273 260 264 264 246 224 221 229 235 238 243 248 262 272 276 263 249 240 233 229 223 225 225 216 199 183 178 192 197
40 49 355 10 338 12 38 283 264 280 292 295 295 291 292 287 273 267 263 262 263 253 254 258 247 229 229 231 235 238 244 246 253 257 260 262 254 248 244 239 233 223 207 210 203 193 189 210 200
26 335 340 321 316 301 10 291 265 282 290 291 290 291 296 298 291 279 267 259 263 245 253 255 241 239 231 227 230 238 242 241 245 248 251 253 254 248 241 236 237 233 216 211 205 199 201 195 199
40 355 310 278 266 307 296 278 288 299 300 288 292 302 303 301 293 290 278 266 263 255 255 259 244 235 214 206 215 229 239 249 258 259 256 262 263 254 242 239 239 232 222 219 208 204 198 208 205
115 343 304 268 275 289 280 288 300 313 342 355 341 339 333 328 317 301 293 279 268 265 261 243 216 207 186 182 206 234 242 248 250 248 250 251 250 254 244 238 239 234 225 219 213 207 207 207 190
151 304 298 293 251 301 300 297 301 297 355 9 359 2 348 358 358 360 1 4 330 293 259 191 173 175 185 194 205 217 220 233 241 246 251 249 249 244 241 235 236 235 224 216 210 205 200 207 192
247 251 277 274 310 287 302 284 261 232 258 31 11 356 351 18 8 5 9 20 22 358 88 91 94 69 65 299 246 245 253 264 256 258 260 254 252 245 238 237 240 233 216 212 208 203 199 195 194
301 221 239 269 312 315 19 289 273 325 292 2 6 6 354 6 10 5 10 11 11 2 27 45 52 39 21 0 290 246 243 256 269 268 264 263 257 246 239 235 229 229 223 223 201 200 201 194 191
244 235 276 287 270 289 224 255 257 340 334 344 4 7 355 356 25 6 15 21 18 19 27 30 42 37 25 10 359 258 232 228 319 320 293 282 267 254 242 232 226 212 187 157 165 164 195 200 203
246 309 289 269 245 244 207 216 282 332 328 325 344 10 0 8 24 22 21 27 30 26 29 29 34 29 25 18 12 16 49 37 20 10 7 350 356 309 247 224 215 194 183 181 192 190 194 197 214
217 272 297 250 235 253 172 204 280 302 325 307 15 24 9 27 35 29 29 27 32 31 31 32 29 28 21 35 19 24 35 42 25 18 10 6 18 10 359 91 105 115 118 135 143 192 196 204 223
198 223 270 303 308 310 161 249 275 326 35 45 42 18 21 37 42 41 38 33 35 36 38 33 37 31 22 35 20 26 17 33 25 27 26 25 23 15 13 11 37 72 135 154 159 158 179 201 228
118 244 230 278 260 276 230 282 217 346 328 4 6 6 30 42 54 46 35 31 38 37 33 24 35 43 25 35 19 23 22 30 25 29 26 23 26 21 17 20 25 27 29 29 15 212 216 212 220
230 287 294 237 311 295 273 295 308 336 2 17 25 16 53 60 50 48 37 32 34 31 22 22 32 39 41 47 43 39 35 35 33 30 29 28 23 20 19 21 21 26 24 14 29 18 8 330 230
175 235 252 270 240 295 312 339 355 4 8 52 72 69 83 83 45 33 25 25 30 26 27 29 34 40 39 37 41 44 37 37 37 41 32 28 27 27 28 25 23 22 17 14 23 14 13 3 355
164 153 184 210 210 236 250 291 351 79 75 104 79 101 108 111 39 2 7 17 27 29 31 32 30 38 38 40 44 42 39 34 37 37 32 28 34 31 27 25 27 26 25 25 23 19 10 4 355